[[{"header":{"parameterUnit":"m.s-1","parameterCategory":1,"la1":30.2991,"la2":30.254,"lo1":-89.0895,"lo2":-89.0444,"dy":0.0017,"dx":0.0017,"nx":28,"ny":28,"refTime":"2023-08-23T09:00:00:Z","depth":0,"parameterNumber":2,"parameterNumberName":"U-component_of_WINDS"},"data":[0,0,0,0,0,0,0,0,0,0,0,0,0,0,0,0,0,0,0,0,0,0,0,0,0,0,0,0,0,0,0,0,0,0,0,0,0,0,0,0,0,0,0,0,0,0,0,0,0,0,0,0,0,0,0,0,0,0,-0.065,-0.0649,0,-0.0604,-0.0603,-0.0603,-0.0576,-0.0576,-0.0576,-0.0576,-0.0534,-0.0533,-0.0532,0,0,0,0,0,0,0,0,0,0,0,0,0,-0.0718,-0.0716,-0.065,-0.0649,-0.0649,-0.0604,-0.0603,-0.0603,-0.0576,-0.0576,-0.0576,-0.0575,-0.0535,-0.0534,-0.0532,0,0,0,0,0,0,0,0,0,0,0,0,0,-0.0682,-0.0716,-0.065,-0.063,-0.0627,-0.0604,-0.0603,-0.0603,-0.0576,-0.0576,-0.0576,-0.0575,-0.0535,-0.0534,-0.0532,-0.0527,0,0,-0.0528,-0.0527,0,0,0,0,0,0,0,0,-0.0684,-0.0679,-0.0633,-0.0631,-0.0628,-0.0595,-0.0612,-0.0578,-0.0576,-0.0596,-0.0576,-0.0575,-0.0555,-0.0552,-0.0544,-0.0525,-0.0524,-0.0528,-0.0527,-0.0526,-0.0526,0,0,0,0,0,0,0,-0.0686,-0.0681,-0.0632,-0.0633,-0.063,-0.0624,-0.0619,-0.0605,-0.0577,-0.0594,-0.0592,-0.0587,-0.0554,-0.0546,-0.0543,-0.0523,-0.0528,-0.0526,-0.0525,-0.0525,-0.0496,-0.0496,0,0,0,0,0,0,-0.0691,-0.0683,-0.0633,-0.063,-0.0656,-0.0623,-0.0617,-0.0606,-0.0577,-0.0573,-0.0587,-0.0585,-0.0548,-0.0545,-0.0541,-0.0533,-0.0526,-0.0525,-0.0524,-0.0496,-0.0496,-0.0496,0,0,0,0,0,0,-0.0693,-0.0687,-0.0635,-0.0656,-0.0649,-0.0622,-0.061,-0.0605,-0.0597,-0.0572,-0.0567,-0.0583,-0.0548,-0.0543,-0.053,-0.0531,-0.0524,-0.0523,-0.0496,-0.0496,-0.0496,-0.0516,0,0,0,0,0,0,-0.0695,-0.0688,-0.0685,-0.0656,-0.0648,-0.0624,-0.061,-0.0605,-0.0594,-0.0592,-0.0567,-0.0563,-0.0547,-0.0532,-0.0529,-0.0529,-0.0522,-0.0496,-0.0496,-0.0496,-0.0515,-0.0517,-0.0518,0,0,0,0,0,-0.0697,-0.0694,-0.0685,-0.0679,-0.0644,-0.0624,-0.0619,-0.06,-0.0594,-0.0591,-0.0575,-0.0564,-0.0531,-0.0531,-0.0527,-0.0527,-0.0496,-0.0496,-0.0496,-0.0514,-0.0516,-0.0518,0,0,0,0,0,0,-0.0727,-0.069,-0.068,-0.0667,-0.0648,-0.0619,-0.0616,-0.0603,-0.0587,-0.0586,-0.0564,-0.0559,-0.0547,-0.0536,-0.0536,-0.0519,-0.0512,-0.0511,-0.0528,-0.0529,-0.0531,-0.0534,-0.052,0,0,0,0,0,-0.0731,-0.0716,-0.0686,-0.0678,-0.0668,-0.0643,-0.0634,-0.062,-0.0601,-0.0594,-0.0576,-0.0559,-0.0545,-0.0536,-0.0522,-0.0513,-0.0507,-0.051,-0.0512,-0.0513,-0.0513,-0.0506,-0.0507,-0.0497,-0.0497,-0.0497,0,0,-0.0742,-0.0719,-0.0712,-0.0683,-0.0667,-0.0653,-0.0637,-0.0624,-0.0614,-0.0592,-0.0578,-0.0564,-0.0544,-0.0532,-0.0526,-0.0522,-0.0514,-0.0513,-0.0515,-0.0514,-0.0507,-0.0508,-0.0509,-0.0497,-0.0497,-0.0497,0,0,-0.0753,-0.0734,-0.0725,-0.0708,-0.0683,-0.0665,-0.0663,-0.0635,-0.0624,-0.0609,-0.0592,-0.058,-0.0556,-0.0542,-0.0532,-0.0534,-0.0523,-0.053,-0.0538,-0.0532,-0.0533,-0.0533,-0.0534,-0.0534,-0.053,-0.053,-0.053,0,-0.0769,-0.0746,-0.0722,-0.0708,-0.0696,-0.0672,-0.0662,-0.0648,-0.0621,-0.0613,-0.0608,-0.0575,-0.0561,-0.0544,-0.0545,-0.0537,-0.0534,-0.0533,-0.0534,-0.0535,-0.0535,-0.0535,-0.0535,-0.0531,-0.0531,-0.0531,-0.0531,0,-0.0767,-0.0751,-0.0747,-0.0717,-0.0704,-0.0693,-0.0667,-0.0657,-0.0643,-0.0627,-0.0611,-0.0591,-0.0572,-0.0567,-0.0555,-0.0548,-0.0546,-0.0538,-0.0531,-0.0537,-0.0537,-0.0537,-0.0532,-0.0532,-0.0532,-0.0531,0,0,-0.0799,-0.0753,-0.0752,-0.0737,-0.0706,-0.0694,-0.0681,-0.0659,-0.0651,-0.0632,-0.0621,-0.0599,-0.059,-0.0579,-0.0565,-0.0559,-0.0561,-0.0551,-0.055,-0.0553,-0.0552,-0.0559,-0.056,-0.0553,-0.0553,-0.0553,-0.0554,0,-0.0806,-0.078,-0.0756,-0.0739,-0.0723,-0.0699,-0.0688,-0.0668,-0.0652,-0.0637,-0.062,-0.0605,-0.0594,-0.0587,-0.058,-0.0562,-0.056,-0.0562,-0.0543,-0.0543,-0.055,-0.0559,-0.0567,-0.057,-0.0554,-0.0554,-0.0554,0,-0.0812,-0.079,-0.0771,-0.0738,-0.0731,-0.0721,-0.0698,-0.0684,-0.0661,-0.0649,-0.0634,-0.0618,-0.0604,-0.0596,-0.0577,-0.0578,-0.0569,-0.0559,-0.0558,-0.0557,-0.0549,-0.0559,-0.057,-0.057,-0.0553,-0.0553,-0.0553,0,-0.0837,-0.0803,-0.0786,-0.0775,-0.0737,-0.073,-0.0714,-0.069,-0.0678,-0.0658,-0.065,-0.063,-0.0619,-0.0604,-0.0583,-0.058,-0.0565,-0.0557,-0.0556,-0.0557,-0.0556,-0.0556,-0.0566,-0.0549,-0.0549,-0.0549,-0.0549,0,-0.0848,-0.0837,-0.0797,-0.0787,-0.0773,-0.0746,-0.0734,-0.0716,-0.0694,-0.0681,-0.066,-0.0648,-0.062,-0.0606,-0.0589,-0.0575,-0.0571,-0.0562,-0.0558,-0.0564,-0.0565,-0.0558,-0.0558,-0.0549,-0.0549,-0.0549,-0.0549,0,-0.0875,-0.0847,-0.0827,-0.0791,-0.0782,-0.0774,-0.0743,-0.0733,-0.0714,-0.0697,-0.0692,-0.0663,-0.0644,-0.062,-0.0595,-0.0584,-0.0572,-0.0565,-0.0579,-0.0577,-0.0577,-0.0578,-0.0584,-0.0583,-0.0566,-0.0567,-0.0567,0,-0.0885,-0.0875,-0.0836,-0.0824,-0.0808,-0.079,-0.0776,-0.0748,-0.0734,-0.0705,-0.0698,-0.0677,-0.0658,-0.0629,-0.0607,-0.0587,-0.058,-0.0584,-0.0578,-0.0583,-0.0581,-0.0582,-0.058,-0.0586,-0.0586,-0.0587,-0.0587,0,-0.0905,-0.089,-0.087,-0.0843,-0.0826,-0.0805,-0.0783,-0.0775,-0.0743,-0.0729,-0.0707,-0.0693,-0.0665,-0.0644,-0.062,-0.0606,-0.0591,-0.0588,-0.0587,-0.0594,-0.0602,-0.0598,-0.0584,-0.0589,-0.0589,-0.0589,-0.0589,-0.0588,-0.0924,-0.0913,-0.0883,-0.086,-0.084,-0.0819,-0.0806,-0.0783,-0.0764,-0.0737,-0.0722,-0.0701,-0.0676,-0.0642,-0.0628,-0.0612,-0.0607,-0.0605,-0.0605,-0.0605,-0.0607,-0.0604,-0.0607,-0.0607,-0.0607,-0.0607,-0.0607,0,-0.0943,-0.0921,-0.09,-0.0868,-0.0849,-0.0833,-0.0807,-0.0794,-0.0775,-0.0751,-0.0732,-0.0707,-0.0685,-0.066,-0.0637,-0.0629,-0.0622,-0.0624,-0.0625,-0.0622,-0.0613,-0.0616,-0.063,-0.063,-0.063,-0.063,-0.063,-0.063,-0.0951,-0.0931,-0.0913,-0.0882,-0.0861,-0.0838,-0.0824,-0.0805,-0.0786,-0.0757,-0.0738,-0.072,-0.0696,-0.067,-0.065,-0.0643,-0.0637,-0.0641,-0.0632,-0.0625,-0.0623,-0.0621,-0.0624,-0.0639,-0.064,-0.0642,-0.0643,-0.0643]},{"header":{"parameterUnit":"m.s-1","parameterCategory":1,"la1":30.2991,"la2":30.254,"lo1":-89.0895,"lo2":-89.0444,"dy":0.0017,"dx":0.0017,"nx":28,"ny":28,"refTime":"2023-08-23T09:00:00:Z","depth":0,"parameterNumber":3,"parameterNumberName":"V-component_of_WINDS"},"data":[0,0,0,0,0,0,0,0,0,0,0,0,0,0,0,0,0,0,0,0,0,0,0,0,0,0,0,0,0,0,0,0,0,0,0,0,0,0,0,0,0,0,0,0,0,0,0,0,0,0,0,0,0,0,0,0,0,0,2.4547,2.4546,0,2.4447,2.4446,2.4445,2.4351,2.435,2.4349,2.4348,2.4238,2.4236,2.4235,0,0,0,0,0,0,0,0,0,0,0,0,0,2.4651,2.465,2.4547,2.4546,2.4545,2.4448,2.4446,2.4445,2.4351,2.435,2.4348,2.4347,2.4239,2.4237,2.4234,0,0,0,0,0,0,0,0,0,0,0,0,0,2.4584,2.4649,2.4547,2.4486,2.448,2.4448,2.4446,2.4444,2.4351,2.435,2.4348,2.4346,2.424,2.4237,2.4234,2.4252,0,0,2.4226,2.4225,0,0,0,0,0,0,0,0,2.4588,2.458,2.4497,2.4491,2.4483,2.441,2.4442,2.438,2.4352,2.44,2.4347,2.4345,2.4296,2.4289,2.4274,2.4247,2.4242,2.4226,2.4224,2.4223,2.4222,0,0,0,0,0,0,0,2.4593,2.4584,2.4507,2.4496,2.4487,2.4462,2.4451,2.443,2.4359,2.4396,2.4389,2.4379,2.4292,2.4277,2.427,2.4241,2.4226,2.4223,2.4221,2.422,2.4223,2.4225,0,0,0,0,0,0,2.4607,2.4588,2.4511,2.4504,2.4533,2.4462,2.4449,2.4435,2.4359,2.4346,2.438,2.4375,2.4282,2.4274,2.4266,2.4282,2.4223,2.422,2.4219,2.4222,2.4224,2.4226,0,0,0,0,0,0,2.461,2.4601,2.4515,2.4545,2.4532,2.4462,2.4447,2.4434,2.4418,2.4347,2.4333,2.4378,2.428,2.427,2.4257,2.4277,2.4219,2.4216,2.422,2.4222,2.4225,2.4315,0,0,0,0,0,0,2.4613,2.4603,2.461,2.4546,2.453,2.4509,2.4448,2.4433,2.4415,2.4406,2.4341,2.4329,2.4278,2.4261,2.4254,2.4272,2.4214,2.4217,2.4221,2.4224,2.431,2.432,2.4329,0,0,0,0,0,2.4617,2.4638,2.4611,2.4602,2.4539,2.4511,2.4502,2.4445,2.4417,2.4423,2.4377,2.4331,2.4276,2.4261,2.4252,2.427,2.4216,2.422,2.4224,2.4306,2.4318,2.4329,0,0,0,0,0,0,2.4704,2.4628,2.4598,2.4598,2.4562,2.4495,2.4501,2.4461,2.443,2.4423,2.4352,2.4338,2.4333,2.4299,2.4284,2.4283,2.424,2.4242,2.4305,2.4317,2.4326,2.4334,2.4212,0,0,0,0,0,2.4724,2.471,2.4643,2.465,2.4634,2.4571,2.4556,2.4517,2.4475,2.4458,2.4411,2.4371,2.4345,2.4329,2.43,2.4305,2.4289,2.4312,2.4322,2.4331,2.4333,2.4333,2.4343,2.4238,2.4238,2.4238,0,0,2.4764,2.4721,2.4715,2.4667,2.4634,2.4619,2.4558,2.4545,2.4532,2.4455,2.4441,2.4405,2.4355,2.4351,2.4347,2.4323,2.4359,2.4335,2.4343,2.4341,2.4338,2.4348,2.4357,2.4241,2.424,2.424,0,0,2.4829,2.4795,2.4798,2.4767,2.4718,2.4677,2.4678,2.4617,2.4591,2.4576,2.4518,2.4501,2.4457,2.4424,2.4402,2.4456,2.4412,2.4448,2.4499,2.45,2.4508,2.4515,2.4534,2.4542,2.4451,2.4451,2.4452,0,2.4884,2.4861,2.4803,2.4794,2.4774,2.4706,2.4708,2.4679,2.4624,2.4611,2.4585,2.453,2.4491,2.4479,2.4493,2.4477,2.4474,2.4455,2.4512,2.4518,2.4524,2.4542,2.4549,2.4456,2.4456,2.4455,2.4455,0,2.4931,2.4916,2.4924,2.4875,2.4855,2.4851,2.4792,2.4779,2.4741,2.4701,2.4686,2.4638,2.4599,2.4593,2.4554,2.4575,2.4562,2.4526,2.4481,2.454,2.4555,2.4562,2.4463,2.4461,2.446,2.4459,0,0,2.5047,2.4968,2.4972,2.4949,2.4891,2.4878,2.487,2.4835,2.4825,2.4789,2.4781,2.4746,2.4712,2.4687,2.4644,2.4645,2.4691,2.4608,2.4605,2.4625,2.4711,2.4739,2.4748,2.4662,2.4663,2.4664,2.4715,0,2.5102,2.5088,2.5036,2.5036,2.5022,2.4957,2.4951,2.4914,2.4877,2.4857,2.4815,2.4792,2.4749,2.4734,2.4732,2.4686,2.4707,2.4682,2.4652,2.4651,2.4667,2.4756,2.4785,2.4837,2.4721,2.4722,2.4723,0,2.5165,2.5136,2.5136,2.508,2.5072,2.5067,2.5031,2.5014,2.4971,2.4943,2.4917,2.487,2.4856,2.4815,2.4796,2.478,2.4764,2.474,2.474,2.4735,2.4691,2.4754,2.4851,2.486,2.4731,2.4731,2.473,0,2.525,2.5211,2.5206,2.5188,2.5123,2.5121,2.5094,2.5049,2.5031,2.4999,2.4987,2.4952,2.4933,2.4907,2.4852,2.4827,2.4838,2.4792,2.4814,2.4816,2.4819,2.482,2.4917,2.4809,2.4809,2.4809,2.4809,0,2.5317,2.5319,2.5244,2.5241,2.5241,2.5181,2.5182,2.5148,2.5109,2.5097,2.5038,2.5027,2.4955,2.4935,2.4891,2.4882,2.4874,2.485,2.4839,2.4856,2.4859,2.4844,2.4839,2.4811,2.4811,2.481,2.481,0,2.5412,2.5362,2.5352,2.5292,2.5277,2.528,2.5227,2.5221,2.5181,2.5167,2.516,2.5096,2.5071,2.5013,2.497,2.4941,2.4942,2.4921,2.4958,2.4951,2.4977,2.4975,2.5067,2.5076,2.4964,2.4965,2.4966,0,2.5458,2.5459,2.54,2.539,2.5365,2.5348,2.533,2.5271,2.5255,2.5207,2.5206,2.5176,2.5149,2.5111,2.5059,2.5027,2.5004,2.5039,2.4999,2.5016,2.5005,2.5006,2.5006,2.5048,2.5049,2.5051,2.5052,0,2.5546,2.5521,2.55,2.5471,2.5453,2.5426,2.5395,2.5389,2.5321,2.5306,2.5281,2.5261,2.5219,2.519,2.515,2.5118,2.5074,2.5065,2.5068,2.5086,2.5108,2.5097,2.4983,2.5063,2.5062,2.5061,2.506,2.506,2.5618,2.5616,2.5575,2.5553,2.5525,2.5498,2.549,2.5451,2.5429,2.5393,2.5358,2.5337,2.5293,2.5235,2.5207,2.5187,2.5165,2.517,2.5171,2.5173,2.5181,2.5111,2.518,2.5179,2.5179,2.5179,2.5178,0,2.5702,2.5674,2.5655,2.5616,2.5599,2.5561,2.5525,2.5513,2.5496,2.546,2.5436,2.5407,2.5378,2.5326,2.5293,2.5287,2.5266,2.528,2.528,2.5274,2.5203,2.5203,2.5298,2.5298,2.5298,2.5298,2.5298,2.5298,2.5745,2.574,2.5711,2.5691,2.5661,2.5642,2.5625,2.56,2.5571,2.5543,2.552,2.5487,2.5444,2.5408,2.538,2.5365,2.5355,2.5377,2.5355,2.529,2.5279,2.5268,2.5268,2.5375,2.5375,2.5428,2.5428,2.5429]}]]